EN

Hourly Weather Acandi

Today, 27 November, Friday

Time Temperature Precipitation Wind Pressure Humidity
00:00 +26°C° 0.1 mm 2 mps 758 mmHg 95%
01:00 +25°C° 0.1 mm 1 mps 758 mmHg 95%
02:00 +25°C° 0.1 mm 1 mps 758 mmHg 95%
03:00 +25°C° 0.1 mm 1 mps 757 mmHg 95%
04:00 +25°C° 0.1 mm 1 mps 757 mmHg 95%
05:00 +26°C° 0.1 mm 1 mps 758 mmHg 94%
06:00 +26°C° 0.1 mm 1 mps 758 mmHg 93%
07:00 +27°C° 0.1 mm 1 mps 759 mmHg 92%
08:00 +29°C° 0 mm 1 mps 759 mmHg 83%
09:00 +31°C° 0 mm 1 mps 759 mmHg 75%
10:00 +33°C° 0 mm 1 mps 759 mmHg 66%
11:00 +33°C° 0.3 mm 1 mps 758 mmHg 72%
12:00 +32°C° 0.3 mm 1 mps 757 mmHg 78%
13:00 +32°C° 0.3 mm 1 mps 757 mmHg 83%
14:00 +31°C° 0.4 mm 2 mps 756 mmHg 87%
15:00 +31°C° 0.4 mm 2 mps 756 mmHg 90%
16:00 +30°C° 0.4 mm 3 mps 756 mmHg 94%
17:00 +29°C° 0.5 mm 3 mps 756 mmHg 95%
18:00 +28°C° 0.5 mm 3 mps 757 mmHg 97%
19:00 +27°C° 0.5 mm 3 mps 757 mmHg 98%
20:00 +27°C° 0.8 mm 3 mps 758 mmHg 98%
21:00 +26°C° 0.8 mm 3 mps 758 mmHg 98%
22:00 +26°C° 0.8 mm 2 mps 759 mmHg 98%
23:00 +26°C° 0.7 mm 3 mps 758 mmHg 98%

Tomorrow, 28 November, Saturday

Time Temperature Precipitation Wind Pressure Humidity
00:00 +26°C° 0.7 mm 3 mps 758 mmHg 98%
01:00 +26°C° 0.7 mm 3 mps 758 mmHg 98%
02:00 +26°C° 0.4 mm 3 mps 758 mmHg 98%
03:00 +26°C° 0.4 mm 2 mps 758 mmHg 98%
04:00 +25°C° 0.4 mm 2 mps 758 mmHg 98%
05:00 +26°C° 0 mm 2 mps 758 mmHg 98%
06:00 +26°C° 0 mm 2 mps 758 mmHg 97%
07:00 +26°C° 0 mm 2 mps 759 mmHg 97%
08:00 +28°C° 0 mm 2 mps 759 mmHg 86%
09:00 +31°C° 0 mm 2 mps 759 mmHg 76%
10:00 +34°C° 0 mm 2 mps 760 mmHg 65%
11:00 +34°C° 0.3 mm 2 mps 759 mmHg 69%
12:00 +32°C° 0.3 mm 2 mps 758 mmHg 72%
13:00 +32°C° 0.3 mm 2 mps 757 mmHg 76%
14:00 +32°C° 0.9 mm 2 mps 757 mmHg 82%
15:00 +31°C° 0.9 mm 1 mps 757 mmHg 87%
16:00 +30°C° 0.9 mm 1 mps 756 mmHg 93%
17:00 +29°C° 0.6 mm 1 mps 757 mmHg 94%
18:00 +28°C° 0.6 mm 2 mps 757 mmHg 96%
19:00 +27°C° 0.6 mm 2 mps 758 mmHg 97%
20:00 +27°C° 0.5 mm 2 mps 758 mmHg 97%
21:00 +27°C° 0.5 mm 2 mps 759 mmHg 97%
22:00 +26°C° 0.5 mm 2 mps 759 mmHg 97%
23:00 +26°C° 0.5 mm 2 mps 759 mmHg 97%

Day after tomorrow, 29 November, Sunday

Time Temperature Precipitation Wind Pressure Humidity
00:00 +26°C° 0.5 mm 2 mps 759 mmHg 97%
01:00 +26°C° 0.5 mm 2 mps 758 mmHg 97%
02:00 +26°C° 0.2 mm 2 mps 758 mmHg 97%
03:00 +26°C° 0.2 mm 2 mps 758 mmHg 97%
04:00 +26°C° 0.2 mm 2 mps 758 mmHg 97%
05:00 +26°C° 0.1 mm 2 mps 758 mmHg 96%
06:00 +26°C° 0.1 mm 2 mps 758 mmHg 96%
07:00 +27°C° 0.1 mm 1 mps 759 mmHg 95%
08:00 +29°C° 0.1 mm 1 mps 759 mmHg 87%
09:00 +31°C° 0.1 mm 1 mps 759 mmHg 79%
10:00 +33°C° 0.1 mm 1 mps 759 mmHg 71%
11:00 +32°C° 0.5 mm 1 mps 759 mmHg 74%
12:00 +32°C° 0.5 mm 1 mps 758 mmHg 77%
13:00 +32°C° 0.5 mm 1 mps 757 mmHg 81%
14:00 +31°C° 0.7 mm 1 mps 757 mmHg 85%
15:00 +30°C° 0.7 mm 1 mps 757 mmHg 90%
16:00 +30°C° 0.7 mm 1 mps 756 mmHg 95%
17:00 +29°C° 1.4 mm 1 mps 757 mmHg 96%
18:00 +28°C° 1.4 mm 1 mps 758 mmHg 97%
19:00 +27°C° 1.4 mm 1 mps 758 mmHg 98%
20:00 +27°C° 1 mm 2 mps 759 mmHg 98%
21:00 +27°C° 1 mm 2 mps 759 mmHg 98%
22:00 +26°C° 1 mm 3 mps 759 mmHg 97%
23:00 +26°C° 1.1 mm 2 mps 759 mmHg 98%

30 November, Monday

Time Temperature Precipitation Wind Pressure Humidity
00:00 +26°C° 1.1 mm 2 mps 759 mmHg 98%
01:00 +26°C° 1.1 mm 2 mps 758 mmHg 98%
02:00 +26°C° 0.5 mm 2 mps 758 mmHg 98%
03:00 +26°C° 0.5 mm 2 mps 758 mmHg 98%
04:00 +26°C° 0.5 mm 2 mps 758 mmHg 98%
05:00 +26°C° 0.7 mm 2 mps 758 mmHg 98%
06:00 +26°C° 0.7 mm 2 mps 759 mmHg 98%
07:00 +26°C° 0.7 mm 2 mps 759 mmHg 98%
08:00 +28°C° 0.4 mm 2 mps 759 mmHg 92%
09:00 +30°C° 0.4 mm 2 mps 759 mmHg 87%
10:00 +31°C° 0.4 mm 2 mps 759 mmHg 81%
11:00 +31°C° 0.8 mm 2 mps 759 mmHg 85%
12:00 +31°C° 0.8 mm 2 mps 758 mmHg 88%
13:00 +30°C° 0.8 mm 1 mps 757 mmHg 92%
14:00 +30°C° 1.1 mm 1 mps 757 mmHg 93%
15:00 +29°C° 1.1 mm 1 mps 756 mmHg 95%
16:00 +29°C° 1.1 mm 1 mps 756 mmHg 97%
17:00 +28°C° 2 mm 1 mps 756 mmHg 97%
18:00 +27°C° 2 mm 1 mps 757 mmHg 97%
19:00 +27°C° 2 mm 2 mps 757 mmHg 97%
20:00 +27°C° 1.4 mm 2 mps 758 mmHg 98%
21:00 +26°C° 1.4 mm 2 mps 758 mmHg 98%
22:00 +26°C° 1.4 mm 2 mps 759 mmHg 98%
23:00 +26°C° 1.3 mm 2 mps 758 mmHg 98%

1 December, Tuesday

Time Temperature Precipitation Wind Pressure Humidity
00:00 +26°C° 1.3 mm 2 mps 758 mmHg 98%
01:00 +26°C° 1.3 mm 2 mps 758 mmHg 98%
02:00 +26°C° 0.1 mm 2 mps 757 mmHg 98%
03:00 +26°C° 0.1 mm 2 mps 757 mmHg 98%
04:00 +26°C° 0.1 mm 3 mps 756 mmHg 97%
05:00 +26°C° 0 mm 3 mps 757 mmHg 97%
06:00 +26°C° 0 mm 3 mps 758 mmHg 97%
07:00 +26°C° 0 mm 3 mps 758 mmHg 97%
08:00 +27°C° 0.1 mm 3 mps 759 mmHg 95%
09:00 +28°C° 0.1 mm 3 mps 759 mmHg 93%
10:00 +29°C° 0.1 mm 3 mps 759 mmHg 91%
11:00 +29°C° 0.5 mm 3 mps 758 mmHg 89%
12:00 +30°C° 0.5 mm 3 mps 758 mmHg 88%
13:00 +30°C° 0.5 mm 3 mps 757 mmHg 87%
14:00 +30°C° 0.3 mm 3 mps 757 mmHg 87%
15:00 +29°C° 0.3 mm 3 mps 757 mmHg 87%
16:00 +29°C° 0.3 mm 2 mps 756 mmHg 86%
17:00 +28°C° 0 mm 3 mps 757 mmHg 87%
18:00 +27°C° 0 mm 3 mps 757 mmHg 88%
19:00 +26°C° 0 mm 3 mps 758 mmHg 88%
20:00 +26°C° 0 mm 3 mps 758 mmHg 89%
21:00 +26°C° 0 mm 3 mps 758 mmHg 90%
22:00 +26°C° 0 mm 3 mps 759 mmHg 91%
23:00 +26°C° 0 mm 2 mps 759 mmHg 91%

2 December, Wednesday

Time Temperature Precipitation Wind Pressure Humidity
00:00 +26°C° 0 mm 2 mps 758 mmHg 91%
01:00 +26°C° 0 mm 2 mps 758 mmHg 91%
02:00 +26°C° 0 mm 2 mps 758 mmHg 90%
03:00 +26°C° 0 mm 2 mps 758 mmHg 90%
04:00 +26°C° 0 mm 1 mps 757 mmHg 90%
05:00 +26°C° 0 mm 2 mps 758 mmHg 90%
06:00 +26°C° 0 mm 2 mps 758 mmHg 90%
07:00 +26°C° 0 mm 2 mps 759 mmHg 90%
08:00 +28°C° 0 mm 2 mps 759 mmHg 83%
09:00 +30°C° 0 mm 2 mps 760 mmHg 77%
10:00 +32°C° 0 mm 2 mps 760 mmHg 70%
11:00 +32°C° 0.3 mm 2 mps 759 mmHg 75%
12:00 +31°C° 0.3 mm 2 mps 759 mmHg 80%
13:00 +31°C° 0.3 mm 2 mps 758 mmHg 85%
14:00 +30°C° 1.1 mm 2 mps 758 mmHg 89%
15:00 +29°C° 1.1 mm 2 mps 757 mmHg 93%
16:00 +29°C° 1.1 mm 1 mps 757 mmHg 96%
17:00 +28°C° 0.6 mm 1 mps 758 mmHg 97%
18:00 +27°C° 0.6 mm 1 mps 758 mmHg 98%
19:00 +27°C° 0.6 mm 1 mps 759 mmHg 98%
20:00 +26°C° 0.4 mm 1 mps 759 mmHg 98%
21:00 +26°C° 0.4 mm 1 mps 760 mmHg 98%
22:00 +26°C° 0.4 mm 1 mps 760 mmHg 98%
23:00 +26°C° 0.3 mm 1 mps 760 mmHg 98%
Show more

We Need Your Consent

Meteoprog and our Service Providers may store and access personal data such as cookies, device identifiers or other similar technologies on your device and process such data to personalise content and ads, as well as provide social media features and to analyse the traffic.

  • Store and/or access information on your device

    Cookies, device identifiers or other information can be stored or accessed on your device for the purposes indicated above.

  • Personalised ads and content, ad and content measurement, audience insights, and products development

    Ads and content can be personalised based on a profile. More data can be added to better personalise ads and content. Ad and content performance can be measured. Insights about the audience who saw the ads and content can be derived. Such data can be used to develop or improve user’s experience, systems and software.

By clicking ‘I Agree’ you will allow the use of indicated cookies, device identifiers, web beacons or other similar technologies. Your settings can be changed in the browser on your device.

For certain purposes, legitimate interests may be relied on, rather than consent. You can read more about this in our Privacy and Cookie Policy.